Weather reports worldwide

Advertisment
Medina De Pomar, Spain (8063): temperature & dewpoint: 12.09.2019 06:00:00 - 18.09.2019 06:00:00 (CEST)Medina De Pomar, Spain (8063): wind speed & gusts: 12.09.2019 06:00:00 - 18.09.2019 06:00:00 (CEST)Medina De Pomar, Spain (8063): wind direction: 12.09.2019 06:00:00 - 18.09.2019 06:00:00 (CEST)Medina De Pomar, Spain (8063): reduced air pressure: 12.09.2019 06:00:00 - 18.09.2019 06:00:00 (CEST)Medina De Pomar, Spain (8063): visibility: 12.09.2019 06:00:00 - 18.09.2019 06:00:00 (CEST)Medina De Pomar, Spain (8063): sunshine duration: 12.09.2019 06:00:00 - 18.09.2019 06:00:00 (CEST)Medina De Pomar, Spain (8063): precipitation: 12.09.2019 06:00:00 - 18.09.2019 06:00:00 (CEST)
Date & Time tt [°C] td [°C] ff [km/h] ff [kn] fx [km/h] fx [kn] dd ppp [hPa] vv [km] sd [min] rr [mm]
18.09.2019 06:00:00 - - - - - - - - - - -
18.09.2019 05:00:00 16,5 14,7 3 2 6 4 WNW 1017,0 20 0 0,2
18.09.2019 04:00:00 16,4 14,7 3 1 6 3 NNE 1017,9 20 0 0,0
18.09.2019 03:00:00 16,3 14,3 1 1 9 5 SSW 1018,0 17 0 0,0
18.09.2019 02:00:00 15,8 13,3 4 2 9 5 SE 1017,5 20 0 -
18.09.2019 01:00:00 16,7 13,5 5 3 10 6 N 1017,5 20 0 0,0
18.09.2019 00:00:00 17,2 13,9 4 2 9 5 N 1017,4 20 0 0,0
17.09.2019 23:00:00 17,4 13,9 4 2 6 4 W 1017,2 20 0 0,0
17.09.2019 22:00:00 18,9 14,1 2 1 8 5 E 1016,6 20 0 0,0
17.09.2019 21:00:00 21,3 13,9 5 3 16 8 NE 1016,0 20 0 0,0
17.09.2019 20:00:00 22,3 14,7 8 5 24 13 N 1014,6 20 0 -
17.09.2019 19:00:00 23,7 15,0 13 7 35 19 NNE 1014,2 20 30 0,0
17.09.2019 18:00:00 26,9 15,0 13 7 24 13 NE 1013,8 20 48 0,0
17.09.2019 17:00:00 26,1 15,4 8 4 19 10 N 1014,2 20 59 0,0
17.09.2019 16:00:00 25,5 18,7 10 5 28 15 NE 1014,8 20 34 0,6
17.09.2019 15:00:00 28,0 13,9 3 1 23 12 WNW 1014,7 20 56 0,0
17.09.2019 14:00:00 25,7 15,7 4 2 10 5 WNW 1016,1 20 60 -
17.09.2019 13:00:00 23,1 15,4 2 1 6 3 W 1017,4 20 57 0,0
17.09.2019 12:00:00 21,0 15,5 2 1 6 3 ENE 1018,4 20 60 0,0
17.09.2019 11:00:00 18,8 15,7 2 1 6 3 SSW 1019,2 20 46 0,0
17.09.2019 10:00:00 15,8 14,8 2 1 4 2 N 1019,9 11 0 0,0
17.09.2019 09:00:00 - - - - - - - - - - -
17.09.2019 08:00:00 - - - - - - - - - - -
17.09.2019 07:00:00 - - - - - - - - - - -
17.09.2019 06:00:00 - - - - - - - - - - -
17.09.2019 05:00:00 - - - - - - - - - - -
17.09.2019 04:00:00 - - - - - - - - - - -
17.09.2019 03:00:00 - - - - - - - - - - -
17.09.2019 02:00:00 - - - - - - - - - - -
17.09.2019 01:00:00 - - - - - - - - - - -
17.09.2019 00:00:00 - - - - - - - - - - -
16.09.2019 23:00:00 - - - - - - - - - - -
16.09.2019 22:00:00 18,6 17,3 2 1 8 4 N 1019,6 4,2 0 0,0
16.09.2019 21:00:00 - - - - - - - - - - -
16.09.2019 20:00:00 - - - - - - - - - - -
16.09.2019 19:00:00 19,9 17,5 5 3 16 9 SW 1018,3 7 0 3,2
16.09.2019 18:00:00 21,9 17,3 5 3 18 10 W 1017,3 20 0 0,0
16.09.2019 17:00:00 24,8 14,5 8 4 16 9 ENE 1016,8 20 3 0,0
16.09.2019 16:00:00 26,2 15,0 6 4 16 9 E 1016,8 20 29 0,0
16.09.2019 15:00:00 25,9 14,7 5 3 11 6 NW 1017,6 20 53 0,0
16.09.2019 14:00:00 24,4 15,3 4 2 13 7 SW 1018,7 20 60 -
16.09.2019 13:00:00 22,4 14,8 3 2 11 6 N 1019,7 20 56 0,0
16.09.2019 12:00:00 20,4 14,3 2 1 6 3 W 1020,7 20 59 0,2
16.09.2019 11:00:00 16,9 13,9 1 1 7 4 ESE 1021,7 20 39 0,0
16.09.2019 10:00:00 15,0 13,8 3 1 6 3 S 1021,9 20 10 0,0
16.09.2019 09:00:00 13,9 12,7 3 1 7 4 SSW 1022,0 20 0 0,0
16.09.2019 08:00:00 13,0 11,9 3 1 5 3 ENE 1021,9 12 0 -
16.09.2019 07:00:00 13,7 12,6 2 1 6 4 NNE 1021,4 16 0 0,0
16.09.2019 06:00:00 13,6 12,5 1 1 5 3 N 1021,5 11 0 0,0
16.09.2019 05:00:00 14,3 13,1 0 0 4 2 N 1021,2 11 0 0,0
16.09.2019 04:00:00 14,5 13,4 2 1 9 5 ENE 1021,8 20 0 0,0
16.09.2019 03:00:00 14,3 13,1 0 0 6 3 N 1022,4 12 0 0,0
16.09.2019 02:00:00 14,6 13,2 1 1 6 3 SSE 1022,3 13 0 -
16.09.2019 01:00:00 15,3 13,5 1 1 6 3 SE 1022,0 15 0 0,0
16.09.2019 00:00:00 16,1 13,9 3 2 16 8 N 1021,9 20 0 0,0
15.09.2019 23:00:00 16,7 14,3 4 2 9 5 N 1022,0 20 0 0,2
15.09.2019 22:00:00 17,5 15,2 2 1 16 9 ENE 1021,6 20 0 0,0
15.09.2019 21:00:00 18,0 15,1 4 2 10 5 N 1021,3 20 0 0,0
15.09.2019 20:00:00 18,8 14,7 3 1 5 3 SSW 1021,0 20 0 -
15.09.2019 19:00:00 18,9 14,6 3 2 11 6 N 1020,6 20 0 0,0
15.09.2019 18:00:00 19,1 14,3 3 1 22 12 E 1020,8 20 0 0,0
15.09.2019 17:00:00 18,7 14,4 4 2 23 13 SSE 1021,1 18 0 1,2
15.09.2019 16:00:00 20,0 13,9 13 7 49 26 SSE 1021,6 20 0 0,4
15.09.2019 15:00:00 26,6 9,0 12 6 27 14 SE 1019,1 20 35 0,0
15.09.2019 14:00:00 27,1 9,4 6 3 16 9 SE 1019,5 20 60 -
15.09.2019 13:00:00 24,1 10,4 4 2 10 5 W 1020,5 20 60 0,0
15.09.2019 12:00:00 21,4 14,0 3 2 13 7 WNW 1022,0 20 60 0,0
15.09.2019 11:00:00 17,2 14,1 6 3 17 9 W 1023,6 20 12 0,0
15.09.2019 10:00:00 15,2 12,8 5 3 9 5 NE 1024,1 19 0 1,2
15.09.2019 09:00:00 14,1 12,1 3 1 7 4 NW 1023,7 20 0 0,0
15.09.2019 08:00:00 13,1 11,3 3 1 5 3 ENE 1023,8 20 0 -
15.09.2019 07:00:00 13,4 11,2 3 1 5 3 NNE 1023,5 20 0 0,0
15.09.2019 06:00:00 14,1 11,8 2 1 7 4 NE 1023,3 20 0 0,0
15.09.2019 05:00:00 14,5 12,0 0 0 4 2 N 1023,7 20 0 0,0
15.09.2019 04:00:00 14,8 12,1 2 1 8 4 WSW 1023,9 20 0 0,0
15.09.2019 03:00:00 14,8 11,8 1 1 7 4 WNW 1024,0 20 0 0,0
15.09.2019 02:00:00 15,5 12,2 1 1 8 4 SE 1023,9 20 0 -
15.09.2019 01:00:00 16,4 12,3 3 2 8 5 WSW 1024,3 20 0 0,0
15.09.2019 00:00:00 17,5 12,4 4 2 10 6 NNE 1023,8 20 0 0,0
14.09.2019 23:00:00 19,3 12,1 3 2 18 10 W 1023,4 20 0 0,0
14.09.2019 22:00:00 21,0 11,0 8 5 18 10 ENE 1023,0 20 0 0,0
14.09.2019 21:00:00 22,3 10,2 9 5 18 10 E 1022,6 20 0 0,0
14.09.2019 20:00:00 24,8 9,2 7 4 25 14 E 1021,6 20 39 -
14.09.2019 19:00:00 26,8 7,7 16 9 42 23 ESE 1020,7 20 60 0,0
14.09.2019 18:00:00 27,6 8,5 15 8 37 20 E 1020,5 20 60 0,0
14.09.2019 17:00:00 28,3 8,0 16 9 39 21 ESE 1020,4 20 58 0,0
14.09.2019 16:00:00 28,8 6,8 16 9 34 18 ESE 1020,6 20 60 0,0
14.09.2019 15:00:00 28,5 8,3 8 4 28 15 ESE 1021,2 20 60 0,0
14.09.2019 14:00:00 27,0 8,0 9 5 32 17 SE 1022,5 20 60 -
14.09.2019 13:00:00 25,4 9,7 8 4 21 11 S 1023,5 20 60 0,0
14.09.2019 12:00:00 22,9 11,6 3 2 10 5 SSW 1024,7 20 60 0,0
14.09.2019 11:00:00 21,2 12,1 2 1 8 4 ENE 1025,5 20 60 0,0
14.09.2019 10:00:00 18,1 12,5 3 2 7 4 WNW 1026,4 20 48 0,0
14.09.2019 09:00:00 15,1 13,0 3 2 5 3 ENE 1027,0 20 0 0,0
14.09.2019 08:00:00 14,7 12,5 1 1 5 3 S 1027,1 20 0 -
14.09.2019 07:00:00 14,7 12,4 1 1 5 3 SSE 1026,9 20 0 0,0
14.09.2019 06:00:00 14,7 11,7 1 1 7 4 NW 1026,6 20 0 0,0
14.09.2019 05:00:00 14,6 11,6 2 1 10 5 ESE 1026,9 20 0 0,0
14.09.2019 04:00:00 15,2 12,0 4 2 10 6 NNE 1027,1 20 0 0,0
14.09.2019 03:00:00 15,2 12,3 3 2 8 4 SW 1027,4 20 0 0,0
14.09.2019 02:00:00 15,6 12,3 1 1 4 2 ESE 1027,7 20 0 -
14.09.2019 01:00:00 17,0 12,7 1 1 13 7 E 1027,7 20 0 0,0
14.09.2019 00:00:00 18,3 13,0 8 4 14 8 NNE 1027,2 20 0 0,0
13.09.2019 23:00:00 19,0 12,7 4 2 10 6 NNE 1027,2 20 0 0,0
13.09.2019 22:00:00 20,6 11,6 5 3 19 10 E 1026,7 20 0 0,0
13.09.2019 21:00:00 21,1 11,7 9 5 23 12 ENE 1026,1 20 0 0,0
13.09.2019 20:00:00 23,6 6,4 9 5 30 16 E 1025,2 20 41 -
13.09.2019 19:00:00 25,6 6,2 9 5 27 15 SE 1024,6 20 59 0,0
13.09.2019 18:00:00 24,5 11,4 16 8 34 19 NE 1024,7 20 43 0,0
13.09.2019 17:00:00 25,4 10,4 16 9 34 18 NE 1024,6 20 60 0,0
13.09.2019 16:00:00 25,6 9,8 16 9 39 21 ENE 1025,4 20 60 0,0
13.09.2019 15:00:00 25,2 8,7 17 9 32 18 NE 1025,5 20 60 0,0
13.09.2019 14:00:00 24,6 8,1 16 8 34 18 NNE 1025,9 20 60 -
13.09.2019 13:00:00 24,3 7,0 14 8 29 15 NE 1027,3 20 60 0,0
13.09.2019 12:00:00 21,3 10,4 4 2 9 5 WSW 1028,6 20 60 0,0
13.09.2019 11:00:00 17,0 11,0 4 2 9 5 NW 1029,4 20 60 0,0
13.09.2019 10:00:00 13,8 10,8 3 2 7 4 SSE 1030,7 20 60 0,0
13.09.2019 09:00:00 10,0 8,9 1 1 5 3 E 1031,6 5 24 0,0
13.09.2019 08:00:00 9,1 8,0 1 1 5 3 NNE 1032,1 7 0 -
13.09.2019 07:00:00 9,4 8,1 1 1 8 5 E 1032,1 15 0 0,0
13.09.2019 06:00:00 9,6 8,4 4 2 9 5 NE 1031,6 14 0 0,0
13.09.2019 05:00:00 10,1 8,9 3 2 6 4 NNE 1031,8 15 0 0,0
13.09.2019 04:00:00 10,5 9,0 2 1 7 4 E 1032,2 19 0 0,0
13.09.2019 03:00:00 11,1 9,6 3 1 7 4 SE 1031,8 20 0 0,0
13.09.2019 02:00:00 11,9 10,2 3 2 7 4 NNE 1031,3 16 0 -
13.09.2019 01:00:00 12,8 10,9 3 1 10 5 NW 1031,4 20 0 0,0
13.09.2019 00:00:00 14,1 11,2 3 1 10 5 NNE 1031,1 20 0 0,0
12.09.2019 23:00:00 15,9 12,1 6 3 14 7 N 1030,3 20 0 0,0
12.09.2019 22:00:00 17,4 12,3 6 3 19 10 NNW 1029,7 20 0 0,0
12.09.2019 21:00:00 18,3 12,5 5 3 20 11 N 1029,2 20 0 0,0
12.09.2019 20:00:00 21,2 12,6 9 5 25 13 NNE 1028,2 20 47 -
12.09.2019 19:00:00 23,3 12,6 9 5 27 14 NNE 1027,2 20 60 0,0
12.09.2019 18:00:00 25,0 11,9 10 5 28 15 NNE 1026,5 20 60 0,0
12.09.2019 17:00:00 25,4 11,6 9 5 23 12 N 1026,4 20 60 0,0
12.09.2019 16:00:00 24,8 11,0 9 5 18 10 N 1027,2 20 60 0,0
12.09.2019 15:00:00 24,0 9,9 7 4 15 8 W 1028,1 20 60 0,0
12.09.2019 14:00:00 22,9 10,6 5 3 16 9 ESE 1029,0 20 60 -
12.09.2019 13:00:00 20,6 10,0 6 3 12 7 SW 1030,1 20 60 0,0
12.09.2019 12:00:00 18,4 10,3 5 3 14 7 WSW 1031,0 20 60 0,0
12.09.2019 11:00:00 16,7 10,5 4 2 12 6 NNW 1031,6 20 60 0,0
12.09.2019 10:00:00 13,2 10,4 4 2 10 5 N 1032,3 20 60 0,0
12.09.2019 09:00:00 9,8 8,5 4 2 10 6 W 1032,9 20 23 0,0
12.09.2019 08:00:00 9,2 8,0 2 1 9 5 N 1032,8 18 0 -
12.09.2019 07:00:00 9,4 8,0 5 3 8 4 NNE 1032,2 15 0 0,0
12.09.2019 06:00:00 9,9 8,7 1 1 6 3 NW 1032,1 20 0 0,0

tt = temperature
td = dewpoint
ff = wind speed
fx = gusts
dd = wind direction
ppp = reduced air pressure
vv = visibility
sd = sunshine duration
rr = precipitation

Next stations